Andalusia, AL

2:18 AM CST on December 06, 2019 (GMT -0600)
Andalusia

Weather History for K79J - November, 2019

Change the Weather History Date:

Tuesday, November 12, 2019

  Actual Average (KCEW) Record (KCEW)
Temperature  
Mean Temperature 50 °F -  
Max Temperature 69 °F 72 °F 82 °F (2003)
Min Temperature 30 °F 42 °F 27 °F (2011)
Degree Days  
Heating Degree Days 14    
Moisture  
Dew Point 41 °F    
Average Humidity 73    
Maximum Humidity 90    
Minimum Humidity 48    
Precipitation  
Precipitation 0.20 in - - ()
Sea Level Pressure  
Sea Level Pressure 30.08 in    
Wind  
Wind Speed 10 mph ()    
Max Wind Speed 28 mph    
Max Gust Speed 38 mph    
Visibility 9.2 miles    
Events Rain    
Averages and records for this station are not official NWS values.
T = Trace of Precipitation, MM = Missing Value Source: Averaged Metar Reports

Daily Weather History Graph

Daily Weather History Graph

Search for Another Location

Airport or City:

Astronomy

Nov. 12, 2019 Rise Set
Actual Time 6:10 AM CST 4:48 PM CST
Civil Twilight 5:44 AM CST 5:14 PM CST
Nautical Twilight 5:15 AM CST 5:43 PM CST
Astronomical Twilight 4:46 AM CST 6:12 PM CST
Moon 5:13 PM CST (11/12) 6:04 AM CST (11/12)
Length of Visible Light 11h 29m
Length of Day
10h 38m
Full, 100% of the Moon is Illuminated
Nov 12
Full
Nov 19
Last Quarter
Nov 26
New
Dec 4
First Quarter
Dec 11
Full

Hourly Weather History & Observations

Time (CST) Temp. Windchill Dew Point Humidity Pressure Visibility Wind Dir Wind Speed Gust Speed Precip Events Conditions
12:56 AM 64.9 °F - 61.0 °F 87% 29.94 in 10.0 mi Calm Calm - N/A   Overcast
1:46 AM 66.0 °F - 62.1 °F 87% 29.93 in 10.0 mi Variable 3.5 mph - N/A   Overcast
1:56 AM 66.0 °F - 62.1 °F 87% 29.92 in 10.0 mi Calm Calm - N/A   Overcast
2:39 AM 66.9 °F - 63.0 °F 87% 29.92 in 4.0 mi Calm Calm - 0.08 in Rain Light Rain
2:56 AM 66.0 °F - 63.0 °F 90% 29.90 in 9.0 mi Calm Calm - 0.09 in   Overcast
3:33 AM 66.9 °F - 63.0 °F 87% 29.91 in 2.5 mi SW 4.6 mph - 0.04 in Rain Rain
3:42 AM 68.0 °F - 64.0 °F 87% 29.92 in 1.8 mi West 8.1 mph - 0.09 in Rain Heavy Rain
3:46 AM 68.0 °F - 64.9 °F 90% 29.92 in 3.0 mi West 9.2 mph - 0.09 in Rain Light Rain
3:56 AM 69.1 °F - 64.0 °F 84% 29.93 in 9.0 mi NW 25.3 mph 31.1 mph 0.09 in Rain Light Rain
4:03 AM 61.0 °F - 55.0 °F 81% 29.96 in 10.0 mi NW 27.6 mph 38.0 mph 0.00 in Rain Light Rain
4:08 AM 57.9 °F - 52.0 °F 81% 29.96 in 10.0 mi NW 19.6 mph 38.0 mph 0.00 in Rain Light Rain
4:18 AM 55.9 °F - 51.1 °F 84% 29.97 in 10.0 mi NW 16.1 mph - 0.00 in   Overcast
4:56 AM 54.0 °F - 48.9 °F 83% 29.99 in 10.0 mi NW 16.1 mph 24.2 mph 0.00 in   Overcast
5:32 AM 52.0 °F - 46.9 °F 83% 30.02 in 10.0 mi NNW 18.4 mph 31.1 mph 0.02 in Rain Light Rain
5:47 AM 51.1 °F - 46.0 °F 83% 30.03 in 10.0 mi NW 19.6 mph 24.2 mph 0.02 in Rain Light Rain
5:56 AM 50.0 °F - 46.0 °F 86% 30.04 in 10.0 mi NW 16.1 mph 24.2 mph 0.02 in Rain Light Rain
6:52 AM 46.4 °F 39.2 °F 42.8 °F 87% 30.08 in 10.0 mi NNW 18.4 mph 26.5 mph 0.00 in   Overcast
6:56 AM 46.9 °F - 41.0 °F 80% 30.08 in 10.0 mi NNW 19.6 mph 27.6 mph 0.00 in   Overcast
7:22 AM 46.9 °F - 42.1 °F 83% 30.11 in 10.0 mi NW 15.0 mph 27.6 mph N/A   Overcast
7:56 AM 45.0 °F 37.4 °F 37.9 °F 76% 30.12 in 10.0 mi NNW 18.4 mph 32.2 mph N/A   Overcast
8:56 AM 44.1 °F 36.8 °F 37.0 °F 76% 30.16 in 10.0 mi NNW 16.1 mph 24.2 mph N/A   Overcast
9:56 AM 43.0 °F 34.5 °F 36.0 °F 76% 30.17 in 10.0 mi NNW 19.6 mph 32.2 mph 0.00 in   Overcast
10:38 AM 43.0 °F 34.5 °F 34.0 °F 71% 30.18 in 10.0 mi North 19.6 mph 26.5 mph N/A   Overcast
10:56 AM 44.1 °F 37.4 °F 34.0 °F 68% 30.17 in 10.0 mi NNW 13.8 mph 21.9 mph N/A   Overcast
11:56 AM 44.1 °F 36.2 °F 33.1 °F 65% 30.16 in 10.0 mi NNW 18.4 mph 27.6 mph N/A   Overcast
12:56 PM 44.1 °F 35.2 °F 32.0 °F 63% 30.14 in 10.0 mi North 23.0 mph 28.8 mph N/A   Overcast
1:21 PM 46.9 °F - 30.9 °F 54% 30.14 in 10.0 mi NNW 19.6 mph 27.6 mph N/A   Mostly Cloudy
1:56 PM 48.0 °F - 28.9 °F 48% 30.15 in 10.0 mi North 16.1 mph 25.3 mph N/A   Clear
2:56 PM 48.9 °F - 30.0 °F 48% 30.16 in 10.0 mi NW 13.8 mph 21.9 mph N/A   Clear
3:56 PM 45.0 °F 37.4 °F 28.0 °F 52% 30.17 in 10.0 mi North 18.4 mph 25.3 mph N/A   Clear
4:56 PM 41.0 °F 33.5 °F 26.1 °F 55% 30.19 in 10.0 mi NNW 13.8 mph 25.3 mph N/A   Clear
5:56 PM 37.9 °F 30.9 °F 23.0 °F 55% 30.22 in 10.0 mi North 10.4 mph 20.7 mph N/A   Clear
6:56 PM 36.0 °F 26.7 °F 23.0 °F 59% 30.25 in 10.0 mi North 15.0 mph - N/A   Clear
7:56 PM 35.1 °F 27.4 °F 21.9 °F 59% 30.26 in 10.0 mi North 10.4 mph 21.9 mph N/A   Clear
8:56 PM 34.0 °F 24.2 °F 19.9 °F 56% 30.27 in 10.0 mi North 15.0 mph 20.7 mph N/A   Clear
9:56 PM 33.1 °F 25.5 °F 19.0 °F 56% 30.27 in 10.0 mi North 9.2 mph 19.6 mph N/A   Clear
10:56 PM 32.0 °F 23.6 °F 19.0 °F 59% 30.26 in 10.0 mi North 10.4 mph 19.6 mph N/A   Clear
11:56 PM 30.9 °F 23.5 °F 18.0 °F 59% 30.26 in 10.0 mi North 8.1 mph - N/A   Clear